This is the latest recevied weather packets stored in our database for station/object OK1FET-15. If no packets are shown the sender has not sent any weather packets the latest 10 day(s).
| Time | Temp. | Humidity | Pressure | Rain* | Wind** | Luminosity | Snow |
|---|---|---|---|---|---|---|---|
| 1777877978 | 18.89° C | 56% | 1013.9 hPa | - | - | - | - |
| 1777877670 | 18.33° C | 58% | 1013.9 hPa | - | - | - | - |
| 1777877362 | 17.78° C | 58% | 1013.9 hPa | - | - | - | - |
| 1777877055 | 17.22° C | 62% | 1013.9 hPa | - | - | - | - |
| 1777876747 | 16.67° C | 67% | 1013.9 hPa | - | - | - | - |
| 1777876440 | 15.56° C | 68% | 1013.9 hPa | - | - | - | - |
| 1777876133 | 15° C | 67% | 1013.9 hPa | - | - | - | - |
| 1777875825 | 14.44° C | 70% | 1013.9 hPa | - | - | - | - |
| 1777875518 | 13.89° C | 71% | 1013.8 hPa | - | - | - | - |
| 1777875211 | 13.89° C | 72% | 1013.9 hPa | - | - | - | - |
| 1777874904 | 13.33° C | 73% | 1013.9 hPa | - | - | - | - |
| 1777874596 | 13.33° C | 73% | 1013.8 hPa | - | - | - | - |
| 1777874289 | 13.33° C | 74% | 1013.9 hPa | - | - | - | - |
| 1777873982 | 13.33° C | 74% | 1013.9 hPa | - | - | - | - |
| 1777873657 | 12.78° C | 73% | 1013.8 hPa | - | - | - | - |
| 1777873332 | 12.78° C | 74% | 1013.8 hPa | - | - | - | - |
| 1777873008 | 12.78° C | 73% | 1013.8 hPa | - | - | - | - |
| 1777872683 | 12.78° C | 74% | 1013.8 hPa | - | - | - | - |
| 1777872358 | 12.78° C | 73% | 1013.7 hPa | - | - | - | - |
| 1777872033 | 12.78° C | 73% | 1013.6 hPa | - | - | - | - |
| 1777871709 | 12.78° C | 73% | 1013.5 hPa | - | - | - | - |
| 1777871384 | 12.78° C | 73% | 1013.5 hPa | - | - | - | - |
| 1777871059 | 12.22° C | 73% | 1013.5 hPa | - | - | - | - |
| 1777870735 | 12.22° C | 72% | 1013.5 hPa | - | - | - | - |
| 1777870410 | 11.67° C | 72% | 1013.4 hPa | - | - | - | - |
* Rain since midnight (hover to see other rain measurements)
** Current wind speed in m/s (hover to see current wind gust speed)